Stations météo

réclame
Mon MeteoGroup
Alghero, Italie (16520): Température de l'air & dewpoint: 17.04.2018 03:00:00 - 23.04.2018 03:00:00 (CEST)Alghero, Italie (16520): Vitesse du vent: 17.04.2018 03:00:00 - 23.04.2018 03:00:00 (CEST)Alghero, Italie (16520): Direction du vent: 17.04.2018 03:00:00 - 23.04.2018 03:00:00 (CEST)Alghero, Italie (16520): reduced air pressure: 17.04.2018 03:00:00 - 23.04.2018 03:00:00 (CEST)Alghero, Italie (16520): visibility: 17.04.2018 03:00:00 - 23.04.2018 03:00:00 (CEST)Alghero, Italie (16520): Quantités de précipitations: 17.04.2018 03:00:00 - 23.04.2018 03:00:00 (CEST)
Date & Time tt [°C] td [°C] ff [km/h] ff [knt] dd ppp [hPa] vv [km] rr [mm]
23.04.2018 03:00:00 10,0 9,0 4 2 NE - 10 -
23.04.2018 02:00:00 10,6 9,1 2 1 E 1020,0 10 -
23.04.2018 01:00:00 11,0 9,0 4 2 - - 10 -
23.04.2018 00:00:00 13,0 11,0 2 1 - - 10 -
22.04.2018 23:00:00 14,5 10,5 2 1 - 1019,7 10 0,0
22.04.2018 22:00:00 16,0 11,0 5 3 N - 10 -
22.04.2018 21:00:00 18,0 10,0 5 3 N - 10 -
22.04.2018 20:00:00 20,1 12,2 4 2 NNE 1018,0 25 -
22.04.2018 19:00:00 23,0 12,0 15 8 NE - 10 -
22.04.2018 18:00:00 25,0 11,0 16 9 NE - 10 -
22.04.2018 17:00:00 25,6 12,4 8 4 N 1017,6 25 0,0
22.04.2018 16:00:00 24,0 14,0 11 6 W - 10 -
22.04.2018 15:00:00 25,0 13,0 11 6 W - 10 -
22.04.2018 14:00:00 25,0 15,5 8 4 - 1018,5 10 -
22.04.2018 13:00:00 24,0 12,0 9 5 W - 10 -
22.04.2018 12:00:00 22,0 12,0 5 3 N - 10 -
22.04.2018 11:00:00 21,1 15,1 2 1 - 1019,4 10 0,0
22.04.2018 10:00:00 18,0 15,0 8 4 SSW - 10 -
22.04.2018 09:00:00 16,0 15,0 5 3 SSW - 10 -
22.04.2018 08:00:00 11,7 9,9 2 1 N 1019,0 14 -
22.04.2018 07:00:00 8,0 7,0 4 2 - - 10 -
22.04.2018 06:00:00 9,0 8,0 4 2 NE - 10 -
22.04.2018 05:00:00 9,0 7,9 5 3 NE 1018,4 20 0,0
22.04.2018 04:00:00 10,0 8,0 4 2 - - 10 -
22.04.2018 03:00:00 10,0 9,0 2 1 - - 10 -
22.04.2018 02:00:00 11,1 9,4 8 4 NNE 1019,2 10 -
22.04.2018 01:00:00 12,0 10,0 4 2 - - 10 -
22.04.2018 00:00:00 - - - - - - - -
21.04.2018 23:00:00 13,9 11,3 8 4 NNE 1019,5 10 0,0
21.04.2018 22:00:00 15,0 12,0 2 1 - - 10 -
21.04.2018 21:00:00 17,0 13,0 5 3 N - 10 -
21.04.2018 20:00:00 18,8 12,3 9 5 NE 1018,6 22 -
21.04.2018 19:00:00 21,0 13,0 8 4 WNW - 10 -
21.04.2018 18:00:00 21,0 12,0 11 6 W - 10 -
21.04.2018 17:00:00 21,4 13,5 13 7 W 1018,6 28 0,0
21.04.2018 16:00:00 22,0 15,0 13 7 WNW - 10 -
21.04.2018 15:00:00 21,0 15,0 15 8 WNW - 10 -
21.04.2018 14:00:00 21,3 13,1 16 9 WNW 1019,6 10 -
21.04.2018 13:00:00 22,0 14,0 13 7 WNW - 10 -
21.04.2018 12:00:00 23,0 11,0 5 3 - - 10 -
21.04.2018 11:00:00 22,0 10,7 4 2 - 1020,1 10 0,0
21.04.2018 10:00:00 19,0 14,0 4 2 - - 10 -
21.04.2018 09:00:00 14,0 13,0 4 2 - - 10 -
21.04.2018 08:00:00 10,9 10,4 4 2 NNE 1020,0 20 -
21.04.2018 07:00:00 9,0 8,0 4 2 - - 10 -
21.04.2018 06:00:00 9,0 9,0 5 3 NE - 10 -
21.04.2018 05:00:00 9,6 9,2 2 1 N 1020,1 10 0,0
21.04.2018 04:00:00 10,0 10,0 4 2 - - 10 -
21.04.2018 03:00:00 11,0 11,0 2 1 - - 10 -
21.04.2018 02:00:00 11,3 10,9 4 2 - 1021,0 10 -
21.04.2018 01:00:00 13,0 12,0 4 2 - - 10 -
21.04.2018 00:00:00 13,0 12,0 2 1 - - 10 -
20.04.2018 23:00:00 12,7 12,1 5 3 N 1021,0 10 0,0
20.04.2018 22:00:00 14,0 14,0 5 3 N - 10 -
20.04.2018 21:00:00 15,0 14,0 4 2 W - 10 -
20.04.2018 20:00:00 16,1 15,1 5 3 E 1020,9 15 -
20.04.2018 19:00:00 16,0 15,0 8 4 WNW - 10 -
20.04.2018 18:00:00 16,0 15,0 21 11 SW - 6 -
20.04.2018 17:00:00 17,8 15,3 18 10 SSW 1021,3 20 0,0
20.04.2018 16:00:00 22,0 15,0 13 7 S - 10 -
20.04.2018 15:00:00 24,0 15,0 8 4 S - 10 -
20.04.2018 14:00:00 23,3 14,1 9 5 WNW 1021,6 10 -
20.04.2018 13:00:00 24,0 12,0 9 5 - - 10 -
20.04.2018 12:00:00 22,0 13,0 4 2 - - 10 -
20.04.2018 11:00:00 20,8 14,3 8 4 NE 1022,7 10 0,0
20.04.2018 10:00:00 18,0 13,0 4 2 - - 10 -
20.04.2018 09:00:00 15,0 12,0 8 4 NE - 10 -
20.04.2018 08:00:00 11,3 10,7 2 1 N 1022,3 40 -
20.04.2018 07:00:00 10,0 10,0 2 1 N - 10 -
20.04.2018 06:00:00 11,0 10,0 4 2 - - 10 -
20.04.2018 05:00:00 10,7 10,0 4 2 NE 1022,3 15 0,0
20.04.2018 04:00:00 12,0 11,0 5 3 NNE - 10 -
20.04.2018 03:00:00 13,0 12,0 4 2 - - 10 -
20.04.2018 02:00:00 13,2 11,8 5 3 N 1023,1 22 -
20.04.2018 01:00:00 14,0 12,0 8 4 NNE - 10 -
20.04.2018 00:00:00 14,0 12,0 11 6 NNE - 10 -
19.04.2018 23:00:00 14,1 12,2 5 3 NNE 1023,8 25 0,0
19.04.2018 22:00:00 15,0 13,0 9 5 NE - 10 -
19.04.2018 21:00:00 17,0 12,0 8 4 N - 10 -
19.04.2018 20:00:00 18,0 13,4 8 4 NNW 1023,4 40 -
19.04.2018 19:00:00 20,0 13,0 8 4 S - 10 -
19.04.2018 18:00:00 22,0 13,0 15 8 N - 10 -
19.04.2018 17:00:00 23,0 13,3 18 10 N 1022,7 10 0,0
19.04.2018 16:00:00 24,0 13,0 22 12 NNE - 10 -
19.04.2018 15:00:00 24,0 13,0 21 11 NNE - 10 -
19.04.2018 14:00:00 24,1 13,9 18 10 NNE 1023,9 10 -
19.04.2018 13:00:00 23,0 14,0 15 8 NNE - 10 -
19.04.2018 12:00:00 22,0 14,0 13 7 NE - 10 -
19.04.2018 11:00:00 20,5 13,1 11 6 ENE 1024,9 10 0,0
19.04.2018 10:00:00 18,0 13,0 13 7 NE - 10 -
19.04.2018 09:00:00 16,0 12,0 13 7 NE - 10 -
19.04.2018 08:00:00 13,6 11,2 9 5 NE 1024,6 18 -
19.04.2018 07:00:00 12,0 10,0 5 3 NNW - 10 -
19.04.2018 06:00:00 13,0 10,0 8 4 N - 10 -
19.04.2018 05:00:00 12,7 10,1 5 3 N 1024,2 10 0,0
19.04.2018 04:00:00 11,0 10,0 4 2 - - 10 -
19.04.2018 03:00:00 12,0 11,0 4 2 N - 10 -
19.04.2018 02:00:00 11,8 10,2 4 2 - 1025,1 10 -
19.04.2018 01:00:00 12,0 10,0 5 3 NNE - 10 -
19.04.2018 00:00:00 13,0 12,0 5 3 NE - 10 -
18.04.2018 23:00:00 13,7 12,8 2 1 - 1024,9 10 0,0
18.04.2018 22:00:00 14,0 13,0 5 3 ENE - 10 -
18.04.2018 21:00:00 16,0 14,0 8 4 SSW - 10 -
18.04.2018 20:00:00 17,5 14,2 15 8 SSW 1023,9 10 -
18.04.2018 19:00:00 20,0 12,0 16 9 NE - 10 -
18.04.2018 18:00:00 21,0 12,0 9 5 SSE - 10 -
18.04.2018 17:00:00 22,4 12,0 31 17 NE 1022,5 10 0,0
18.04.2018 16:00:00 23,0 13,0 35 19 NNE - 10 -
18.04.2018 15:00:00 23,0 13,0 22 12 NNE - 10 -
18.04.2018 14:00:00 22,1 13,9 24 13 NE 1022,8 10 -
18.04.2018 13:00:00 22,0 13,0 24 13 NNE - 10 -
18.04.2018 12:00:00 21,0 13,0 21 11 NNE - 10 -
18.04.2018 11:00:00 20,3 12,8 18 10 NNE 1023,5 10 0,0
18.04.2018 10:00:00 18,0 14,0 15 8 NE - 10 -
18.04.2018 09:00:00 15,0 14,0 13 7 NE - 9 -
18.04.2018 08:00:00 13,7 13,4 9 5 NE 1023,4 0,9 -
18.04.2018 07:00:00 13,0 12,0 4 2 NE - 0,4 -
18.04.2018 06:00:00 12,0 12,0 4 2 ENE - 0,4 -
18.04.2018 05:00:00 11,5 11,2 8 4 NNE 1022,9 0,4 0,0
18.04.2018 04:00:00 - - - - - - - -
18.04.2018 03:00:00 11,0 11,0 2 1 - - 0,4 -
18.04.2018 02:00:00 11,6 11,2 5 3 NNW 1023,6 6 -
18.04.2018 01:00:00 11,0 10,0 4 2 ENE - 10 -
18.04.2018 00:00:00 11,0 10,0 2 1 - - 10 -
17.04.2018 23:00:00 11,9 11,2 5 3 NNE 1022,9 10 0,0
17.04.2018 22:00:00 - - - - - - - -
17.04.2018 21:00:00 15,0 13,0 2 1 - - 10 -
17.04.2018 20:00:00 15,3 12,8 8 4 WNW 1021,2 10 -
17.04.2018 19:00:00 17,0 12,0 11 6 WNW - 10 -
17.04.2018 18:00:00 19,0 13,0 11 6 W - 10 -
17.04.2018 17:00:00 19,7 14,0 9 5 S 1020,3 10 0,0
17.04.2018 16:00:00 20,0 15,0 9 5 S - 10 -
17.04.2018 15:00:00 19,0 15,0 11 6 S - 10 -
17.04.2018 14:00:00 19,0 14,9 15 8 SSW 1021,0 20 -
17.04.2018 13:00:00 19,0 14,0 15 8 S - 10 -
17.04.2018 12:00:00 18,0 14,0 13 7 S - 10 -
17.04.2018 11:00:00 17,3 13,9 13 7 SSW 1021,0 10 0,0
17.04.2018 10:00:00 16,0 13,0 13 7 SSW - 10 -
17.04.2018 09:00:00 15,0 13,0 11 6 SSW - 10 -
17.04.2018 08:00:00 14,4 13,7 9 5 SSW 1019,8 10 -
17.04.2018 07:00:00 14,0 13,0 9 5 SW - 8 -
17.04.2018 06:00:00 14,0 13,0 11 6 SW - 10 -
17.04.2018 05:00:00 13,4 12,8 9 5 SSW 1018,7 20 0,0
17.04.2018 04:00:00 12,0 11,0 4 2 - - 10 -
17.04.2018 03:00:00 13,0 12,0 4 2 - - 10 -

tt = Température de l'air
td = dewpoint
ff = Vitesse du vent
dd = Direction du vent
ppp = reduced air pressure
vv = visibility
rr = Quantités de précipitations

stations d'obs. à proximité